Regional Weather Roundup
Issued by NWS Newport/Morehead, NC

Current Version | Previous Version | Text Only | Print | Product List | Glossary On
Versions: 1 2 3 4 5 6 7 8 9 10 11 12 13 14 15 16 17 18 19 20 21 22 23 24 25 26 27 28 29 30 31 32 33 34 35 36 37 38 39 40 41 42 43 44 45 46 47 48 49 50
000
ASUS42 KMHX 230810
RWRMHX
WEATHER ROUNDUP FOR EASTERN NORTH CAROLINA
NATIONAL WEATHER SERVICE NEWPORT/MOREHEAD CITY NC
400 AM EDT SAT AUG 23 2014

NOTE: "FAIR" INDICATES FEW OR NO CLOUDS BELOW 12,000 FEET
WITH NO SIGNIFICANT WEATHER AND/OR OBSTRUCTIONS TO VISIBILITY

NCZ015>017-031-032-045>047-102-103-230900-
NORTH COAST

CITY           SKY/WX    TMP DP  RH WIND       PRES   REMARKS
EDENTON        PTCLDY    72  71  97 NE3       29.93F FOG
ELIZABETH CITY PTCLDY    74  72  93 NE6       29.93F
KITTY HAWK     SUNNY     75  71  85 CALM      29.92S
MANTEO         CLEAR     75  72  88 NE7       29.93F

$$

NCZ045>047-081-094-103-104-230900-
CENTRAL COAST

CITY           SKY/WX    TMP DP  RH WIND       PRES   REMARKS
FRISCO         MOCLDY    75  72  90 E3        29.92F
SWANQUARTER      N/A     73 N/A N/A E2        29.88F

$$

NCZ095-097-098-100-101-230900-
SOUTHERN COAST

CITY           SKY/WX    TMP DP  RH WIND       PRES   REMARKS
BEAUFORT       CLOUDY    78  74  87 NE3       29.92S
CEDAR ISLAND     N/A     81 N/A N/A N3        29.97S
JACKSONVILLE   CLOUDY    75  72  90 CALM      29.92F
NEWPORT        NOT AVBL
PINEY ISLAND   NOT AVBL
WILMINGTON     PTCLDY    74  73  97 NE3       29.91F


$$

NCZ011>013-027>030-043-044-078>080-089-090>093-098-230900-
COASTAL PLAIN

CITY           SKY/WX    TMP DP  RH WIND       PRES   REMARKS
AHOSKIE        PTCLDY    71  69  94 CALM      29.94S
CLINTON        PTCLDY    73  73 100 CALM      29.93
ELIZABETHTOWN  PTCLDY    73  73  97 CALM      29.91F
GOLDSBORO      MOCLDY    76  75  98 CALM      29.91F
GREENVILLE     MOCLDY    75  72  88 CALM      29.95S
HAVELOCK       CLOUDY    79  74  84 N3        29.93F
KENANSVILLE    MOCLDY    71  70  96 CALM      29.93F
KINSTON        MOCLDY    74  72  94 CALM      29.93F
NEW BERN       CLOUDY    78  74  87 CALM      29.94S
RICHLANDS      CLOUDY    73  70  88 CALM      29.93S
ROANOKE RAPIDS NOT AVBL
ROCKY MOUNT    CLOUDY    75  72  90 NE3       29.93F
WASHINGTON     MOCLDY    73  71  93 CALM      29.94S
WHITEVILLE     PTCLDY    74  72  94 CALM      29.90F

$$

AMZ130-135-150-152-154-156-158-170-250-252-270-ANZ085-086-088-633-658-670-230900-
MARINE OBSERVATIONS

STATION/POSITION TIME  TEMP    WIND        PRES    WAVE   SWELL
                       AIR SEA DIR/SP/G            HT/PER HT/PER
                 (UTC) (F)     (DEG/KT/KT) (MB)    (FT/S) (FT/S)
CHESAPEAKE LIGHT 0700   76      50/ 10/ 11 1014.5
BUOY 44014       0800   77 78   40/  8/ 10 1013.0    2/ 7   2/ 7
DUCK             0800   77 80   40/  7/  8 1012.8
2E DUCK          0700                        N/A     2/ 7
OREGON INLET     0800   76 82   10/  6/  9 1013.3
BUOY 44095       0800      80                N/A     2/ 8
20E OREGON INLET NOT AVBL
HATTERAS CG      0800   79 82   50/  7/  9 1013.6
DIAMOND BUOY     0800   78     340/  8/ 10 1012.9    2/ 7   2/ 7
CAPE LOOKOUT     0700   80      40/  4/  5 1013.1
BEAUFORT LAB     0800   79 84   30/  3/  4 1012.8
30 SE NEW RIVER  0800   82 83  320/  8/  8 1012.7    2/ 4   2/ 4
5 SE WRIGHTSVILL 0800   77 83   40/  6/  8   N/A
BUOY 41002       0658   82 82  260/ 16/ 17 1013.7    3/ 5   2/ 7
BUOY 41004       0800   85 85  220/ 12/ 16 1012.2    2/ 4   2/ 9

$$


USA.gov is the U.S. government's official web portal to all federal, state and local government web resources and services.